TimeMST,TemperatureF,Dew PointF,Humidity,Sea Level PressureIn,VisibilityMPH,Wind Direction,Wind SpeedMPH,Gust SpeedMPH,PrecipitationIn,Events,Conditions,WindDirDegrees,DateUTC
12:16 AM,33.8,24.8,70,30.21,10.0,Calm,Calm,-,N/A,,Clear,0,2012-11-15 07:16:00
12:36 AM,33.8,26.6,75,30.21,10.0,WNW,8.1,-,N/A,,Clear,290,2012-11-15 07:36:00
12:56 AM,33.8,26.6,75,30.20,10.0,NW,9.2,-,N/A,,Scattered Clouds,310,2012-11-15 07:56:00
1:16 AM,37.4,23.0,56,30.21,10.0,NNW,6.9,-,N/A,,Scattered Clouds,330,2012-11-15 08:16:00
1:36 AM,35.6,23.0,60,30.22,10.0,Calm,Calm,-,N/A,,Scattered Clouds,0,2012-11-15 08:36:00
1:56 AM,33.8,24.8,70,30.23,10.0,ENE,3.5,-,N/A,,Scattered Clouds,60,2012-11-15 08:56:00
2:15 AM,35.6,24.8,65,30.24,10.0,Calm,Calm,-,N/A,,Mostly Cloudy,0,2012-11-15 09:15:00
2:36 AM,35.6,24.8,65,30.25,10.0,Calm,Calm,-,N/A,,Mostly Cloudy,0,2012-11-15 09:36:00
2:55 AM,33.8,24.8,70,30.26,10.0,WNW,4.6,-,N/A,,Mostly Cloudy,290,2012-11-15 09:55:00
3:16 AM,35.6,23.0,60,30.27,10.0,NNW,3.5,-,N/A,,Scattered Clouds,340,2012-11-15 10:16:00
3:36 AM,35.6,23.0,60,30.27,10.0,Calm,Calm,-,N/A,,Scattered Clouds,0,2012-11-15 10:36:00
3:55 AM,37.4,21.2,52,30.28,10.0,Calm,Calm,-,N/A,,Scattered Clouds,0,2012-11-15 10:55:00
4:16 AM,32.0,23.0,69,30.28,10.0,Calm,Calm,-,N/A,,Clear,0,2012-11-15 11:16:00
4:36 AM,35.6,23.0,60,30.29,10.0,NE,3.5,-,N/A,,Clear,40,2012-11-15 11:36:00
4:56 AM,37.4,23.0,56,30.30,10.0,NE,5.8,-,N/A,,Clear,40,2012-11-15 11:56:00
5:46 AM,35.6,23.0,60,30.33,25.0,NE,5.8,-,N/A,,Scattered Clouds,40,2012-11-15 12:46:00
6:48 AM,32.0,28.4,87,30.37,10.0,Calm,Calm,-,N/A,,Overcast,0,2012-11-15 13:48:00
7:15 AM,32.0,28.4,87,30.38,10.0,Calm,Calm,-,N/A,,Overcast,0,2012-11-15 14:15:00
7:53 AM,35.6,30.2,81,30.39,10.0,Variable,3.5,-,N/A,,Overcast,0,2012-11-15 14:53:00
8:53 AM,35.6,30.2,81,30.41,12.0,Variable,3.5,-,N/A,,Overcast,0,2012-11-15 15:53:00
9:49 AM,37.4,30.2,75,30.42,15.0,WNW,4.6,-,N/A,,Overcast,290,2012-11-15 16:49:00
10:29 AM,39.2,28.4,65,30.42,20.0,Calm,Calm,-,N/A,,Overcast,0,2012-11-15 17:29:00
10:50 AM,39.2,28.4,65,30.41,20.0,Calm,Calm,-,N/A,,Mostly Cloudy,0,2012-11-15 17:50:00
11:47 AM,41.0,28.4,61,30.37,20.0,Calm,Calm,-,N/A,,Overcast,0,2012-11-15 18:47:00
12:49 PM,41.0,28.4,61,30.35,20.0,Calm,Calm,-,N/A,,Overcast,0,2012-11-15 19:49:00
1:55 PM,41.0,28.4,61,30.34,20.0,ESE,6.9,-,N/A,,Mostly Cloudy,110,2012-11-15 20:55:00
2:45 PM,42.8,26.6,53,30.34,20.0,SE,4.6,-,N/A,,Mostly Cloudy,130,2012-11-15 21:45:00
3:48 PM,44.6,28.4,53,30.34,20.0,East,3.5,-,N/A,,Scattered Clouds,90,2012-11-15 22:48:00
4:49 PM,41.0,28.4,61,30.34,20.0,East,3.5,-,N/A,,Scattered Clouds,100,2012-11-15 23:49:00
5:50 PM,41.0,28.4,61,30.35,20.0,NE,3.5,-,N/A,,Partly Cloudy,40,2012-11-16 00:50:00
6:47 PM,37.4,28.4,70,30.35,20.0,NNE,3.5,-,N/A,,Partly Cloudy,20,2012-11-16 01:47:00
7:55 PM,35.6,28.4,75,30.34,20.0,NNW,6.9,-,N/A,,Partly Cloudy,330,2012-11-16 02:55:00
8:47 PM,35.6,28.4,75,30.33,30.0,NW,9.2,-,N/A,,Partly Cloudy,320,2012-11-16 03:47:00
9:47 PM,35.6,28.4,75,30.33,30.0,NW,9.2,-,N/A,,Partly Cloudy,310,2012-11-16 04:47:00
10:16 PM,33.8,28.4,81,30.33,7.0,NNW,8.1,-,N/A,,Clear,330,2012-11-16 05:16:00
10:35 PM,33.8,28.4,81,30.32,10.0,NW,8.1,-,N/A,,Clear,320,2012-11-16 05:35:00
10:56 PM,33.8,28.4,81,30.31,7.0,NW,6.9,-,N/A,,Clear,320,2012-11-16 05:56:00
11:16 PM,32.0,28.4,87,30.30,7.0,WNW,3.5,-,N/A,,Clear,290,2012-11-16 06:16:00
11:35 PM,32.0,26.6,80,30.30,7.0,West,4.6,-,N/A,,Clear,270,2012-11-16 06:35:00
11:56 PM,32.0,26.6,80,30.29,7.0,WNW,3.5,-,N/A,,Clear,290,2012-11-16 06:56:00